Location: Canyon City
(32.5951°N, 116.5278°W)
Time: 02:35:11
(UTC+00:00)

Cosmos 2219 Rocket - Pass Details

Date: 08 September 2024
Orbit: 827 x 845 km, 71.0° (Epoch: 03 October)

Event Time Altitude Azimuth Distance (km) Brightness Sun altitude
Rises 12:49:47 0° 341° (NNW) 3,394 5.3 -8.3°
Reaches altitude 10° 12:52:15 10° 343° (NNW) 2,453 4.6 -7.8°
Maximum altitude 12:57:53 76° 69° (ENE) 860 2.5 -6.7°
Drops below altitude 10° 13:03:27 10° 155° (SSE) 2,428 4.8 -5.5°
Sets 13:05:52 0° 157° (SSE) 3,356 5.5 -5.0°
